When you browse on this site, cookies collect data to enhance your experience and personalize the content and advertising you see.
Visit our Privacy Policy to learn more. By continuing to use the site, you agree to this use of cookies and data.

Stündliche Wetter Potapovka

Heute, 22 September, Dienstag

Zeit Temperatur Niederschläge Wind Luftdruck Luftfeuchtigkeit
00:00 +9°C° 0 mm 3 m/S 747 mmHg 84%
01:00 +9°C° 0 mm 3 m/S 747 mmHg 85%
02:00 +9°C° 0 mm 3 m/S 747 mmHg 89%
03:00 +9°C° 0 mm 3 m/S 747 mmHg 90%
04:00 +9°C° 0 mm 3 m/S 747 mmHg 92%
05:00 +8°C° 0 mm 4 m/S 747 mmHg 94%
06:00 +10°C° 0 mm 4 m/S 747 mmHg 88%
07:00 +11°C° 0 mm 4 m/S 747 mmHg 83%
08:00 +13°C° 0 mm 5 m/S 748 mmHg 76%
09:00 +14°C° 0 mm 5 m/S 748 mmHg 70%
10:00 +16°C° 0 mm 6 m/S 747 mmHg 63%
11:00 +17°C° 0 mm 6 m/S 747 mmHg 56%
12:00 +19°C° 0 mm 6 m/S 747 mmHg 53%
13:00 +20°C° 0 mm 6 m/S 747 mmHg 51%
14:00 +20°C° 0 mm 6 m/S 747 mmHg 48%
15:00 +19°C° 0 mm 6 m/S 747 mmHg 53%
16:00 +17°C° 0 mm 5 m/S 746 mmHg 58%
17:00 +17°C° 0 mm 4 m/S 746 mmHg 63%
18:00 +15°C° 0 mm 4 m/S 746 mmHg 67%
19:00 +14°C° 0 mm 4 m/S 746 mmHg 71%
20:00 +13°C° 0 mm 4 m/S 747 mmHg 74%
21:00 +13°C° 0 mm 4 m/S 746 mmHg 76%
22:00 +12°C° 0 mm 3 m/S 746 mmHg 79%
23:00 +12°C° 0 mm 3 m/S 746 mmHg 81%

Morgen, 23 September, Mittwoch

Zeit Temperatur Niederschläge Wind Luftdruck Luftfeuchtigkeit
00:00 +11°C° 0 mm 3 m/S 746 mmHg 82%
01:00 +11°C° 0 mm 3 m/S 746 mmHg 82%
02:00 +11°C° 0 mm 3 m/S 746 mmHg 83%
03:00 +10°C° 0 mm 3 m/S 746 mmHg 83%
04:00 +10°C° 0 mm 3 m/S 746 mmHg 83%
05:00 +10°C° 0 mm 2 m/S 746 mmHg 83%
06:00 +12°C° 0 mm 2 m/S 747 mmHg 78%
07:00 +14°C° 0 mm 2 m/S 747 mmHg 73%
08:00 +15°C° 0 mm 2 m/S 747 mmHg 68%
09:00 +17°C° 0 mm 2 m/S 747 mmHg 62%
10:00 +18°C° 0 mm 2 m/S 747 mmHg 57%
11:00 +20°C° 0 mm 2 m/S 747 mmHg 51%
12:00 +20°C° 0 mm 2 m/S 746 mmHg 50%
13:00 +21°C° 0 mm 3 m/S 746 mmHg 49%
14:00 +22°C° 0 mm 3 m/S 746 mmHg 48%
15:00 +20°C° 0 mm 2 m/S 746 mmHg 52%
16:00 +19°C° 0 mm 2 m/S 746 mmHg 56%
17:00 +19°C° 0 mm 1 m/S 746 mmHg 61%
18:00 +18°C° 0 mm 1 m/S 746 mmHg 62%
19:00 +16°C° 0 mm 1 m/S 746 mmHg 64%
20:00 +15°C° 0 mm 1 m/S 746 mmHg 65%
21:00 +15°C° 0 mm 1 m/S 746 mmHg 65%
22:00 +15°C° 0 mm 1 m/S 746 mmHg 65%
23:00 +14°C° 0 mm 1 m/S 746 mmHg 65%

übermorgen, 24 September, Donnerstag

Zeit Temperatur Niederschläge Wind Luftdruck Luftfeuchtigkeit
00:00 +14°C° 0 mm 1 m/S 746 mmHg 66%
01:00 +14°C° 0 mm 1 m/S 746 mmHg 67%
02:00 +14°C° 0 mm 1 m/S 747 mmHg 68%
03:00 +13°C° 0 mm 1 m/S 747 mmHg 69%
04:00 +13°C° 0 mm 1 m/S 746 mmHg 69%
05:00 +13°C° 0 mm 1 m/S 746 mmHg 70%
06:00 +14°C° 0 mm 2 m/S 747 mmHg 67%
07:00 +15°C° 0 mm 2 m/S 747 mmHg 64%
08:00 +16°C° 0 mm 2 m/S 747 mmHg 61%
09:00 +18°C° 0 mm 2 m/S 747 mmHg 55%
10:00 +20°C° 0 mm 2 m/S 747 mmHg 50%
11:00 +21°C° 0 mm 2 m/S 747 mmHg 44%
12:00 +23°C° 0 mm 2 m/S 747 mmHg 42%
13:00 +23°C° 0 mm 2 m/S 747 mmHg 40%
14:00 +24°C° 0 mm 2 m/S 747 mmHg 38%
15:00 +23°C° 0 mm 2 m/S 746 mmHg 42%
16:00 +20°C° 0 mm 2 m/S 746 mmHg 47%
17:00 +19°C° 0 mm 2 m/S 746 mmHg 51%
18:00 +18°C° 0 mm 2 m/S 746 mmHg 53%
19:00 +17°C° 0 mm 2 m/S 746 mmHg 54%
20:00 +16°C° 0 mm 2 m/S 746 mmHg 56%
21:00 +16°C° 0 mm 2 m/S 746 mmHg 57%
22:00 +15°C° 0 mm 2 m/S 746 mmHg 58%
23:00 +15°C° 0 mm 2 m/S 746 mmHg 59%

25 September, Freitag

Zeit Temperatur Niederschläge Wind Luftdruck Luftfeuchtigkeit
00:00 +14°C° 0 mm 2 m/S 746 mmHg 60%
01:00 +14°C° 0 mm 2 m/S 746 mmHg 61%
02:00 +14°C° 0 mm 2 m/S 746 mmHg 62%
03:00 +13°C° 0 mm 2 m/S 746 mmHg 63%
04:00 +13°C° 0 mm 2 m/S 746 mmHg 64%
05:00 +12°C° 0 mm 2 m/S 746 mmHg 66%
06:00 +13°C° 0 mm 3 m/S 746 mmHg 62%
07:00 +14°C° 0 mm 3 m/S 746 mmHg 59%
08:00 +16°C° 0 mm 3 m/S 746 mmHg 56%
09:00 +18°C° 0 mm 3 m/S 746 mmHg 52%
10:00 +20°C° 0 mm 3 m/S 746 mmHg 47%
11:00 +22°C° 0 mm 3 m/S 746 mmHg 43%
12:00 +22°C° 0 mm 4 m/S 746 mmHg 42%
13:00 +23°C° 0 mm 4 m/S 746 mmHg 40%
14:00 +23°C° 0 mm 4 m/S 746 mmHg 39%
15:00 +22°C° 0 mm 4 m/S 746 mmHg 44%
16:00 +21°C° 0 mm 4 m/S 745 mmHg 49%
17:00 +19°C° 0 mm 3 m/S 745 mmHg 54%
18:00 +18°C° 0 mm 3 m/S 745 mmHg 55%
19:00 +18°C° 0 mm 4 m/S 745 mmHg 56%
20:00 +17°C° 0 mm 4 m/S 746 mmHg 57%
21:00 +17°C° 0 mm 4 m/S 746 mmHg 58%
22:00 +15°C° 0 mm 4 m/S 745 mmHg 59%
23:00 +15°C° 0 mm 4 m/S 745 mmHg 60%

26 September, Samstag

Zeit Temperatur Niederschläge Wind Luftdruck Luftfeuchtigkeit
00:00 +14°C° 0 mm 4 m/S 745 mmHg 60%
01:00 +14°C° 0 mm 4 m/S 745 mmHg 60%
02:00 +14°C° 0 mm 4 m/S 745 mmHg 61%
03:00 +13°C° 0 mm 4 m/S 745 mmHg 61%
04:00 +13°C° 0 mm 4 m/S 746 mmHg 60%
05:00 +12°C° 0 mm 4 m/S 746 mmHg 60%
06:00 +13°C° 0 mm 5 m/S 746 mmHg 56%
07:00 +14°C° 0 mm 5 m/S 746 mmHg 53%
08:00 +15°C° 0 mm 6 m/S 746 mmHg 49%
09:00 +17°C° 0 mm 6 m/S 746 mmHg 47%
10:00 +19°C° 0 mm 6 m/S 746 mmHg 44%
11:00 +21°C° 0 mm 6 m/S 746 mmHg 41%
12:00 +21°C° 0 mm 6 m/S 746 mmHg 40%
13:00 +22°C° 0 mm 6 m/S 746 mmHg 39%
14:00 +23°C° 0 mm 6 m/S 745 mmHg 38%
15:00 +22°C° 0 mm 6 m/S 745 mmHg 41%
16:00 +21°C° 0 mm 5 m/S 745 mmHg 45%
17:00 +20°C° 0 mm 5 m/S 745 mmHg 48%
18:00 +19°C° 0 mm 5 m/S 745 mmHg 48%
19:00 +19°C° 0 mm 5 m/S 745 mmHg 47%
20:00 +17°C° 0 mm 6 m/S 745 mmHg 46%
21:00 +17°C° 0 mm 6 m/S 746 mmHg 46%
22:00 +16°C° 0 mm 6 m/S 746 mmHg 45%
23:00 +16°C° 0 mm 6 m/S 746 mmHg 45%

27 September, Sonntag

Zeit Temperatur Niederschläge Wind Luftdruck Luftfeuchtigkeit
00:00 +15°C° 0 mm 5 m/S 746 mmHg 44%
01:00 +15°C° 0 mm 5 m/S 746 mmHg 44%
02:00 +14°C° 0 mm 5 m/S 747 mmHg 43%
03:00 +14°C° 0 mm 5 m/S 747 mmHg 42%
04:00 +13°C° 0 mm 5 m/S 747 mmHg 42%
05:00 +13°C° 0 mm 6 m/S 747 mmHg 41%
06:00 +13°C° 0 mm 6 m/S 747 mmHg 42%
07:00 +13°C° 0 mm 6 m/S 747 mmHg 43%
08:00 +14°C° 0 mm 7 m/S 747 mmHg 44%
09:00 +15°C° 0 mm 7 m/S 747 mmHg 41%
10:00 +17°C° 0 mm 8 m/S 747 mmHg 38%
11:00 +18°C° 0 mm 8 m/S 747 mmHg 35%
12:00 +18°C° 0 mm 8 m/S 747 mmHg 36%
13:00 +20°C° 0 mm 8 m/S 746 mmHg 36%
14:00 +20°C° 0 mm 8 m/S 746 mmHg 37%
15:00 +20°C° 0 mm 8 m/S 746 mmHg 37%
16:00 +18°C° 0 mm 7 m/S 746 mmHg 37%
17:00 +18°C° 0 mm 7 m/S 746 mmHg 38%
18:00 +18°C° 0 mm 7 m/S 746 mmHg 37%
19:00 +18°C° 0 mm 8 m/S 746 mmHg 36%
20:00 +18°C° 0 mm 8 m/S 746 mmHg 35%
21:00 +17°C° 0 mm 8 m/S 746 mmHg 34%
22:00 +17°C° 0 mm 8 m/S 746 mmHg 34%
23:00 +16°C° 0 mm 8 m/S 746 mmHg 33%
Mehr zeigen